Regional Weather Roundup
Issued by NWS

Home | Current Version | Previous Version | Graphics & Text | Print | Product List | Glossary On
Versions: 1 2 3 4 5 6 7 8 9 10 11 12 13 14 15 16 17 18 19 20 21 22 23 24 25 26 27 28 29 30 31 32 33 34 35 36 37 38 39 40 41 42 43 44 45 46 47 48 49 50
000
ASUS45 KABQ 290801
RWRNM
WEATHER ROUNDUP FOR NEW MEXICO
NATIONAL WEATHER SERVICE ALBUQUERQUE NM
200 AM MDT SUN MAR 29 2015

NOTE: "FAIR" MEANS FEW OR NO CLOUDS BELOW 12,000 FEET AGL WITH NO
       SIGNIFICANT WEATHER OR OBSTRUCTIONS TO VISION.

      THIS PRODUCT IS RELEASED AS TWO VERSIONS.  ONE VERSION NEAR
      THE TOP OF THE HOUR CONTAINING PRELIMINARY DATA FROM ALBUQUERQUE
      AND OTHER STATIONS.  A FINAL VERSION WITH ADDITIONAL DATA IS
      ISSUED ABOUT 10 MINUTES AFTER THE HOUR.

NMZ501-503-504-510>518-290900-
NORTHWEST PLATEAU/NORTHCENTRAL MOUNTAINS

CITY           SKY/WX    TMP DP  RH WIND       PRES   REMARKS
FARMINGTON     CLEAR     42  17  36 NE5       30.17R
SANTA FE       CLEAR     48  14  25 NW3       30.18S
TAOS           CLEAR     34  16  47 CALM      30.22S
ANGEL FIRE     FAIR      36  19  49 CALM      30.27S

$$
NMZ402-403-502-505>509-290900-
WESTCENTRAL MOUNTAINS/SOUTHWEST MOUNTAINS

CITY           SKY/WX    TMP DP  RH WIND       PRES   REMARKS
GALLUP         CLEAR     37  10  32 E5        30.27S WCI  33
GRANTS         CLEAR     44  11  26 NW8G16    30.26S

$$
NMZ407-409-411-412-290900-
SOUTHERN DESERTS

CITY           SKY/WX    TMP DP  RH WIND       PRES   REMARKS
DEMING         CLEAR     63   7  11 VRB7      30.14S
ALAMOGORDO     PTCLDY    55   9  15 SE3       30.10R
T OR C         CLEAR     64   2   8 NW9       30.15R

$$
NMZ519>523-290900-
CENTRAL VALLEYS/CENTRAL HIGHLANDS

CITY           SKY/WX    TMP DP  RH WIND       PRES   REMARKS
ALBUQUERQUE    CLEAR     59  14  17 SW10      30.17R
DOUBLE EAGLE   CLEAR     48  16  27 SW7       30.20R
CLINES CORNERS CLEAR     43  15  32 NW10      30.19F
BELEN          FAIR      62   8  12 W16       30.17S
SOCORRO        FAIR      69   8   9 W21G26    30.14S

$$
NMZ524>526-539-540-290900-
SOUTHCENTRAL MOUNTAINS

CITY           SKY/WX    TMP DP  RH WIND       PRES   REMARKS
RUIDOSO        NOT AVBL

$$
NMZ527>531-290900-
NORTHEAST HIGHLANDS/NORTHEAST PLAINS

CITY           SKY/WX    TMP DP  RH WIND       PRES   REMARKS
LAS VEGAS      CLEAR     54  13  19 W9        30.17S
RATON          CLEAR     51  19  28 VRB3      30.10R
CLAYTON        CLEAR     55  23  28 W12       30.00F

$$
NMZ532>537-290900-
EASTCENTRAL PLAINS

CITY           SKY/WX    TMP DP  RH WIND       PRES   REMARKS
TUCUMCARI      CLEAR     51  26  37 NW6       29.99S
CANNON AFB     NOT AVBL
CLOVIS AIRPORT CLEAR     54  28  37 W12       30.04S

$$
NMZ028-029-538-290900-
SOUTHEAST PLAINS

CITY           SKY/WX    TMP DP  RH WIND       PRES   REMARKS
ROSWELL        CLEAR     55  25  31 SW5       30.02F
ARTESIA        CLEAR     55  21  26 SW5       30.04S
CARLSBAD       CLEAR     57  26  30 CALM      30.00F
HOBBS          CLEAR     54  25  32 CALM      30.05S


$$


USA.gov is the U.S. government's official web portal to all federal, state and local government web resources and services.